| time (UTC) | temp C | wind direction | speed KPH | gust KPH | rain 1hr cm | rain 24hr cm | rain mn cm | humidity % | barometer mb |
| 20260505063031 | 18 | 306 | 4.8 | 11.3 | 0.00 | 0.00 | 0.00 | 59 | 1006.1 |
| 20260505061539 | 20 | 0 | 0.0 | 0.0 | 0.00 | 0.00 | 0.00 | 54 | 1006.0 |
| 20260505060032 | 20 | 0 | 0.0 | 6.4 | 0.00 | 0.00 | 0.00 | 53 | 1006.0 |
| 20260505054531 | 20 | 293 | 6.4 | 11.3 | 0.00 | 0.00 | 0.00 | 55 | 1006.1 |
| 20260505053032 | 18 | 44 | 4.8 | 8.0 | 0.00 | 0.00 | 0.00 | 59 | 1006.1 |
| 20260505051536 | 19 | 44 | 3.2 | 6.4 | 0.00 | 0.00 | 0.00 | 56 | 1005.7 |
| 20260505041534 | 21 | 44 | 3.2 | 8.0 | 0.00 | 0.00 | 0.00 | 47 | 1005.3 |
| 20260505040030 | 22 | 44 | 3.2 | 16.1 | 0.00 | 0.00 | 0.00 | 46 | 1005.1 |
| 20260505034534 | 23 | 335 | 3.2 | 6.4 | 0.00 | 0.00 | 0.00 | 42 | 1004.9 |
| 20260505033036 | 22 | 335 | 4.8 | 8.0 | 0.00 | 0.00 | 0.00 | 48 | 1004.9 |
| 20260505031532 | 23 | 335 | 4.8 | 8.0 | 0.00 | 0.00 | 0.00 | 51 | 1004.7 |
| 20260505030032 | 24 | 336 | 3.2 | 6.4 | 0.00 | 0.00 | 0.00 | 43 | 1004.6 |
| 20260505024542 | 25 | 336 | 3.2 | 6.4 | 0.00 | 0.00 | 0.00 | 44 | 1004.6 |
| 20260505023044 | 27 | 0 | 0.0 | 0.0 | 0.00 | 0.00 | 0.00 | 37 | 1004.6 |
| 20260505021539 | 28 | 0 | 0.0 | 4.8 | 0.00 | 0.00 | 0.00 | 35 | 1004.7 |
| 20260505020033 | 29 | 336 | 1.6 | 6.4 | 0.00 | 0.00 | 0.00 | 31 | 1004.7 |
| 20260505014538 | 29 | 336 | 4.8 | 8.0 | 0.00 | 0.00 | 0.00 | 29 | 1004.8 |
| 20260505013033 | 30 | 336 | 6.4 | 12.9 | 0.00 | 0.00 | 0.00 | 27 | 1005.0 |
| 20260505011535 | 30 | 344 | 3.2 | 14.5 | 0.00 | 0.00 | 0.00 | 27 | 1005.0 |
| 20260505010036 | 30 | 333 | 3.2 | 12.9 | 0.00 | 0.00 | 0.00 | 26 | 1005.2 |
| 20260505004532 | 30 | 322 | 4.8 | 16.1 | 0.00 | 0.00 | 0.00 | 27 | 1005.2 |
| 20260505003032 | 30 | 349 | 8.0 | 17.7 | 0.00 | 0.00 | 0.00 | 26 | 1005.3 |
| 20260505001546 | 30 | 350 | 4.8 | 16.1 | 0.00 | 0.00 | 0.00 | 28 | 1005.3 |
| 20260505000039 | 30 | 352 | 4.8 | 9.7 | 0.00 | 0.00 | 0.00 | 27 | 1005.3 |
| 20260504234530 | 30 | 328 | 8.0 | 17.7 | 0.00 | 0.00 | 0.00 | 26 | 1005.4 |
| 20260504233032 | 30 | 309 | 11.3 | 20.9 | 0.00 | 0.00 | 0.00 | 23 | 1005.4 |
| 20260504231540 | 30 | 288 | 4.8 | 14.5 | 0.00 | 0.00 | 0.00 | 26 | 1005.5 |
| 20260504230033 | 30 | 5 | 4.8 | 14.5 | 0.00 | 0.00 | 0.00 | 25 | 1005.7 |
| 20260504224536 | 30 | 338 | 3.2 | 16.1 | 0.00 | 0.00 | 0.00 | 27 | 1005.7 |
| 20260504223032 | 30 | 352 | 3.2 | 14.5 | 0.00 | 0.00 | 0.00 | 27 | 1006.0 |
| 20260504221532 | 30 | 22 | 8.0 | 17.7 | 0.00 | 0.00 | 0.00 | 28 | 1006.2 |
| 20260504220036 | 29 | 352 | 6.4 | 14.5 | 0.00 | 0.00 | 0.00 | 27 | 1006.4 |
| 20260504214532 | 29 | 11 | 4.8 | 14.5 | 0.00 | 0.00 | 0.00 | 27 | 1006.6 |
| 20260504213032 | 28 | 330 | 8.0 | 17.7 | 0.00 | 0.00 | 0.00 | 29 | 1006.7 |
| 20260504211534 | 28 | 57 | 6.4 | 12.9 | 0.00 | 0.00 | 0.00 | 29 | 1006.8 |
| 20260504210050 | 28 | 331 | 4.8 | 9.7 | 0.00 | 0.00 | 0.00 | 31 | 1007.0 |
| 20260504204539 | 28 | 0 | 1.6 | 8.0 | 0.00 | 0.00 | 0.00 | 38 | 1007.2 |
| 20260504203035 | 27 | 0 | 3.2 | 9.7 | 0.00 | 0.00 | 0.00 | 36 | 1007.5 |
| 20260504201533 | 27 | 313 | 4.8 | 12.9 | 0.00 | 0.00 | 0.00 | 36 | 1007.6 |
| 20260504200033 | 27 | 360 | 3.2 | 16.1 | 0.00 | 0.00 | 0.00 | 38 | 1007.8 |
| 20260504194546 | 26 | 334 | 8.0 | 16.1 | 0.00 | 0.00 | 0.00 | 37 | 1007.9 |
| 20260504193035 | 26 | 350 | 8.0 | 20.9 | 0.00 | 0.00 | 0.00 | 36 | 1008.0 |
| 20260504191541 | 26 | 311 | 8.0 | 22.5 | 0.00 | 0.00 | 0.00 | 37 | 1008.1 |
| 20260504190043 | 25 | 323 | 8.0 | 17.7 | 0.00 | 0.00 | 0.00 | 39 | 1008.2 |
| 20260504184538 | 25 | 317 | 8.0 | 16.1 | 0.00 | 0.00 | 0.00 | 39 | 1008.4 |
| 20260504183030 | 25 | 299 | 8.0 | 16.1 | 0.00 | 0.00 | 0.00 | 41 | 1008.3 |
| 20260504181530 | 25 | 317 | 8.0 | 16.1 | 0.00 | 0.00 | 0.00 | 39 | 1008.4 |
| 20260504180040 | 25 | 320 | 6.4 | 16.1 | 0.00 | 0.00 | 0.00 | 41 | 1008.5 |
| 20260504174533 | 24 | 330 | 9.7 | 17.7 | 0.00 | 0.00 | 0.00 | 43 | 1008.4 |
| 20260504173036 | 23 | 338 | 8.0 | 17.7 | 0.00 | 0.00 | 0.00 | 43 | 1008.4 |
| 20260504171531 | 23 | 327 | 8.0 | 20.9 | 0.00 | 0.00 | 0.00 | 43 | 1008.5 |
| 20260504081532 | 17 | 0 | 0.0 | 0.0 | 0.00 | 0.00 | 0.00 | 54 | 1007.4 |